Flag for U.S.A. Weather past 2 weeks in Canton, Ohio, U.S.A.

Now
78 °F

Scattered clouds.


Feels Like: 79 °F
Forecast: 57 / 78 °F
Wind: 9 mph from West

Location: Akron-Canton Regional Airport

Current Time: Jul 31, 2014 at 4:29:23 PM

Latest Report: Jul 31, 2014 at 3:51 PM


Visibility: 10 mi

Pressure: 30.07 "Hg

Humidity: 45%

Dew point: 55 °F

Location of CantonLocation

Historic Weather in Canton — Graph

°F

Canton temperature yesterday

Maximum temperature yesterday: 73 °F (at 2:51 PM)
Minimum temperature yesterday: 56 °F (at 5:51 AM)
Average temperature yesterday: 64 °F

Past Weeks' High & Low Weather Summary

 TemperatureHumidityPressure
High87 °F (Jul 21, 5:51 PM)94% (Jul 21, 4:51 AM)30.25 "Hg (Jul 21, 4:51 AM)
Low52 °F (Jul 29, 5:51 AM)36% (Jul 18, 12:51 PM)29.61 "Hg (Jul 27, 8:51 PM)
Average68 °F70%30.01 "Hg
* Reported Jul 16 2:51 PM — Jul 31 2:51 PM, Canton, Weather by CustomWeather, © 2014

Note: Actual official high and low records may vary slightly from our data, if they occured in-between our weather recording intervals... More about our weather records

Advertising

Canton weather history for previous 24 hours

 ConditionsComfort  
Time TempWeatherWind HumidityBarometerVisibility
2:51 PM
Jul 31
77 °FScattered clouds.7 mph47%30.07 "Hg10 mi
1:51 PM77 °FPartly sunny.9 mph48%30.07 "Hg10 mi
12:51 PM75 °FScattered clouds.9 mph55%30.07 "Hg10 mi
11:51 AM73 °FScattered clouds.6 mph64%30.07 "Hg10 mi
10:51 AM70 °FScattered clouds.7 mph71%30.07 "Hg8 mi
9:51 AM67 °FPartly sunny.8 mph79%30.06 "Hg6 mi
8:51 AM63 °FFog.7 mph87%30.07 "Hg2 mi
7:51 AM61 °FFog.7 mph90%30.06 "Hg3 mi
6:51 AM57 °FFog.5 mph93%30.04 "Hg3 mi
5:51 AM58 °FFog.6 mph90%30.03 "Hg3 mi
4:51 AM59 °FFog.3 mph90%30.02 "Hg3 mi
3:51 AM59 °FFog.5 mph93%30.01 "Hg3 mi
2:51 AM61 °FFog.5 mph90%30.01 "Hg4 mi
1:51 AM61 °FFog.No wind90%30.03 "Hg5 mi
12:51 AM62 °FOvercast.3 mph86%30.02 "Hg8 mi
11:51 PM
Jul 30
60 °FOvercast.8 mph86%30.02 "Hg8 mi
10:51 PM60 °FStrong thunderstorms. Mostly cloudy.5 mph80%30.03 "Hg3 mi
9:51 PM62 °FPartly cloudy.7 mph86%30.03 "Hg10 mi
8:51 PM61 °FBroken clouds.No wind87%30.01 "Hg8 mi
7:51 PM63 °FLight rain. Cloudy.6 mph81%30.01 "Hg8 mi
6:51 PM66 °FThunderstorms. Cloudy.6 mph68%30.02 "Hg8 mi
5:51 PM69 °FBroken clouds.16 mph59%30.01 "Hg10 mi
4:51 PM72 °FBroken clouds.10 mph55%30.00 "Hg10 mi
Weather by CustomWeather, © 2014

See weather overviewHow to use our weather pages